www.pogodaiklimat.ru

Погода и климат >> Архив погоды >> Норвегия >> Рост аэропорт


ПОГОДА в Рост аэропорту

  • Прогноз погоды в Рост аэропорту
  • Монитор погоды в Рост аэропорту

АРХИВ ПОГОДЫ в Рост аэропорту

Время (UTC), дата Ветер
(напр.,м/с)
 
Видим.   Явления Облачность Т
(С)
Тd
(С)
f
(%)
Тe
(С)
Тes
(С)
Комфортность P
(гПа)
Po
(гПа)
Тmin
(С)
Tmax
(С)
R
(мм)
R24
(мм)
S
(см)
16 12.06 С 9
{12}
н/о н/о +8.4 +3.5 71 +4 +4 1025.4 1025.1
17 12.06 С 9
{12}
н/о н/о +7.9 +3.6 74 +3 +3 1025.1 1024.7
18 12.06 С 10
{12}
н/о н/о +7.8 +3.7 75 +3 +3 1024.7 1024.3 +7.6 +9.2
19 12.06 С 9
{12}
н/о н/о +7.8 +3.9 76 +3 +3 1024.1 1023.7
20 12.06 С 9
{11}
н/о н/о +7.7 +4.3 79 +3 +3 1023.7 1023.3
21 12.06 С 10
{12}
н/о н/о +7.5 +4.6 82 +2 +2 1023.0 1022.6
22 12.06 С 8
{11}
н/о н/о +7.6 +5.3 85 +3 +3 1022.7 1022.4
23 12.06 С 8
{11}
н/о н/о +7.7 +5.7 87 +3 +3 1022.3 1021.9
00 13.06 С 8
{12}
н/о н/о +7.7 +6.0 89 +3 +3 1021.9 1021.6 0.2
01 13.06 СВ 8
{10}
н/о н/о +7.8 +6.4 91 +3 +3 1021.6 1021.2
02 13.06 С 6
{10}
н/о н/о +8.1 +6.7 91 +4 +4 1021.2 1020.8
03 13.06 СВ 4
{8}
н/о н/о +8.4 +7.0 91 +5 +5 1020.9 1020.5
04 13.06 СВ 6
{8}
н/о н/о +9.7 +6.2 79 +6 +6 1020.5 1020.1
05 13.06 СВ 7
{9}
н/о н/о +9.7 +6.2 79 +6 +6 1020.3 1019.9
06 13.06 В 9
{11}
н/о н/о +10.1 +6.6 79 +6 +6 1019.9 1019.5 +7.5 +10.2 0.5
07 13.06 В 9
{12}
н/о н/о +10.0 +6.7 80 +6 +6 1019.7 1019.3
08 13.06 СВ 7
{13}
н/о н/о +10.1 +6.6 79 +6 +6 1020.0 1019.6
09 13.06 СВ 8
{11}
н/о н/о +10.7 +6.5 75 +7 +7 1020.1 1019.7
10 13.06 СВ 8
{11}
н/о н/о +10.6 +7.1 79 +7 +7 1020.2 1019.8
11 13.06 В 8
{12}
н/о н/о +11.3 +7.4 77 +8 +8 1020.4 1020.0
12 13.06 В 8
{13}
н/о н/о +11.5 +7.0 74 +8 +8 1020.3 1019.9
13 13.06 В 8
{10}
н/о н/о +11.8 +6.9 72 +9 +9 1020.3 1020.0
14 13.06 СВ 8
{11}
н/о н/о +12.5 +6.3 66 +10 +10 1020.1 1019.7
15 13.06 СВ 8
{11}
н/о н/о +12.8 +6.2 64 +10 +10 1019.8 1019.4
16 13.06 СВ 6
{10}
н/о н/о +11.7 +7.0 73 +9 +9 1019.3 1018.9
17 13.06 С 7
{10}
н/о н/о +11.1 +7.4 78 +8 +8 1019.1 1018.8
18 13.06 С 7
{11}
н/о н/о +11.2 +7.1 76 +8 +8 1019.0 1018.6 +9.9 +13.3
19 13.06 СВ 7
{9}
н/о н/о +11.4 +6.6 72 +8 +8 1018.7 1018.4
20 13.06 СВ 7
{9}
н/о н/о +11.6 +6.7 72 +9 +9 1018.7 1018.4
21 13.06 СВ 6
{10}
н/о н/о +11.0 +6.8 75 +8 +8 1018.9 1018.5
22 13.06 С 6
{8}
н/о н/о +10.6 +6.9 78 +7 +7 1018.9 1018.5
23 13.06 СВ 5
{9}
н/о н/о +11.2 +7.1 76 +9 +9 1018.9 1018.5
00 14.06 СВ 6
{10}
н/о н/о +11.0 +7.1 77 +8 +8 1019.1 1018.7 0.2
01 14.06 СВ 5
{7}
н/о н/о +10.5 +7.0 79 +8 +8 1019.2 1018.9
02 14.06 В 7
{10}
н/о н/о +11.7 +6.8 72 +9 +9 1018.9 1018.6
03 14.06 СВ 6
{10}
н/о н/о +12.0 +7.1 72 +9 +9 1019.0 1018.6
04 14.06 СВ 7
{10}
н/о н/о +12.2 +6.7 69 +9 +9 1018.8 1018.5
05 14.06 СВ 6
{10}
н/о н/о +11.8 +6.9 72 +9 +9 1018.8 1018.4
06 14.06 СВ 6
{10}
н/о н/о +12.2 +7.7 74 +10 +10 1019.0 1018.6 +10.2 +12.8 0.2
07 14.06 СВ 6
{9}
н/о н/о +12.4 +7.5 72 +10 +10 1019.1 1018.8
08 14.06 СВ 5
{8}
н/о н/о +10.5 +7.7 83 +8 +8 1019.2 1018.9
09 14.06 С 6
{7}
н/о н/о +10.7 +7.8 82 +7 +7 1019.4 1019.0
10 14.06 С 8
{10}
н/о н/о +10.6 +8.0 84 +7 +7 1019.5 1019.2
11 14.06 С 7
{11}
н/о н/о +11.0 +7.9 81 +8 +8 1019.3 1018.9
12 14.06 С 6
{11}
н/о н/о +10.7 +8.1 84 +7 +7 1019.3 1019.0
13 14.06 С 7
{9}
н/о н/о +11.2 +8.3 82 +8 +8 1019.1 1018.8
14 14.06 С 7
{9}
н/о н/о +11.0 +8.2 83 +8 +8 1018.9 1018.6
15 14.06 С 7
{9}
н/о н/о +11.0 +8.1 82 +8 +8 1018.7 1018.3
16 14.06 С 9
{11}
н/о н/о +9.8 +7.2 84 +5 +5 1018.5 1018.1
17 14.06 С 9
{12}
н/о н/о +9.7 +6.8 82 +5 +5 1018.1 1017.7
18 14.06 С 9
{12}
н/о н/о +9.6 +6.5 81 +5 +5 1017.9 1017.5 +9.5 +12.7
19 14.06 С 10
{12}
н/о н/о +9.3 +6.6 83 +5 +5 1017.9 1017.5
20 14.06 С 10
{12}
н/о н/о +9.0 +6.8 86 +4 +4 1017.8 1017.4
21 14.06 С 9
{12}
н/о н/о +8.7 +6.5 86 +4 +4 1017.9 1017.5
22 14.06 С 10
{12}
н/о н/о +8.4 +6.4 87 +3 +3 1017.8 1017.4
23 14.06 С 8
{12}
н/о н/о +8.2 +6.5 89 +3 +3 1018.1 1017.8
00 15.06 С 8
{12}
н/о н/о +8.0 +6.3 89 +3 +3 1018.1 1017.7 0.3
01 15.06 С 8
{11}
н/о н/о +7.8 +6.3 90 +3 +3 1018.0 1017.7
02 15.06 С 8
{11}
н/о н/о +7.9 +6.4 90 +3 +3 1018.0 1017.6
03 15.06
{9}
н/о н/о +7.9 +6.4 90 1017.9 1017.5
04 15.06 С 7
{10}
н/о н/о +8.2 +6.5 89 +4 +4 1018.1 1017.7
05 15.06
{9}
н/о н/о +8.3 +6.4 88 1018.2 1017.8
06 15.06 С 7
{11}
н/о н/о +8.7 +6.5 86 +4 +4 1018.3 1017.9 +7.7 +9.6 0.3
07 15.06 С 7
{9}
н/о н/о +8.9 +6.5 85 +5 +5 1018.6 1018.2
08 15.06
{8}
н/о н/о +9.2 +6.7 84 1019.0 1018.6
09 15.06
{8}
н/о н/о +9.5 +6.8 83 1019.2 1018.8
10 15.06 С 7
{8}
н/о н/о +9.3 +6.6 83 +5 +5 1019.3 1018.9
11 15.06 С 7
{8}
н/о н/о +9.2 +6.3 82 +5 +5 1019.5 1019.1
12 15.06 С 6
{9}
н/о н/о +9.1 +6.2 82 +5 +5 1019.6 1019.3
13 15.06 С 6 н/о н/о +8.6 +5.9 83 +5 +5 1019.8 1019.5
14 15.06 С 7
{8}
н/о н/о +8.4 +6.0 85 +4 +4 1019.9 1019.5
15 15.06 С 7
{9}
н/о н/о +8.2 +6.2 87 +4 +4 1019.6 1019.3
16 15.06 С 7
{10}
н/о н/о +8.0 +5.8 86 +4 +4 1019.5 1019.1
17 15.06 С 8
{11}
н/о н/о +8.0 +6.0 87 +3 +3 1019.0 1018.6
18 15.06 С 8
{11}
н/о н/о +7.7 +5.7 87 +3 +3 1018.7 1018.3 +7.5 +9.7
19 15.06 С 6
{10}
н/о н/о +7.1 +5.4 89 +3 +3 1018.9 1018.5
20 15.06 С 6
{9}
н/о н/о +7.0 +5.8 92 +2 +2 1018.8 1018.4
21 15.06 С 7
{9}
н/о н/о +6.6 +5.4 92 +2 +2 1018.7 1018.4
22 15.06 С 8
{9}
н/о н/о +6.6 +5.4 92 +1 +1 1018.6 1018.2
23 15.06 С 8
{10}
н/о н/о +6.7 +5.5 92 +1 +1 1018.3 1017.9
00 16.06 С 8
{10}
н/о н/о +6.8 +5.3 90 +2 +2 1018.1 1017.7
01 16.06
{10}
н/о н/о +6.6 +5.2 91 1017.6 1017.2
02 16.06 С 8
{10}
н/о н/о +6.4 +5.2 92 +1 +1 1017.3 1016.9
03 16.06 С 7
{10}
н/о н/о +6.3 +5.3 93 +1 +1 1016.7 1016.3
04 16.06 С 6
{10}
н/о н/о +6.3 +5.1 92 +1 +1 1016.6 1016.2
05 16.06 СВ 7
{10}
н/о н/о +6.4 +4.9 90 +1 +1 1016.3 1016.0
06 16.06 С 7
{10}
н/о н/о +6.6 +5.1 90 +2 +2 1015.9 1015.5 +6.0 +7.8
07 16.06 СВ 5
{8}
н/о н/о +6.8 +5.0 88 +3 +3 1015.8 1015.4
08 16.06 С 5
{7}
н/о н/о +7.2 +5.2 87 +3 +3 1015.7 1015.3
09 16.06 С 6
{8}
н/о н/о +8.2 +5.5 83 +4 +4 1015.2 1014.8
10 16.06
{9}
н/о н/о +8.4 +5.7 83 1014.8 1014.4
11 16.06
{9}
н/о н/о +8.6 +5.7 82 1014.8 1014.4
12 16.06 С 6
{9}
н/о н/о +8.7 +6.0 83 +5 +5 1014.4 1014.1
13 16.06 С 8
{9}
н/о н/о +9.0 +6.1 82 +5 +5 1013.7 1013.4
14 16.06 С 7
{10}
н/о н/о +9.1 +6.4 83 +5 +5 1013.4 1013.0
15 16.06 С 7
{9}
н/о н/о +9.4 +6.7 83 +5 +5 1012.9 1012.6
16 16.06 С 8
{9}
н/о н/о +9.3 +6.9 85 +5 +5 1012.3 1011.9
17 16.06 С 7
{9}
н/о н/о +9.3 +7.3 87 +5 +5 1011.8 1011.4
18 16.06 С 7
{10}
н/о н/о +9.2 +7.2 87 +5 +5 1011.4 1011.0 +6.4 +9.7
19 16.06 С 6
{8}
н/о н/о +9.3 +7.4 88 +6 +6 1011.2 1010.9
20 16.06 С 5
{7}
н/о н/о +9.1 +7.6 90 +6 +6 1011.1 1010.7
21 16.06 С 5
{7}
н/о н/о +8.8 +7.6 92 +5 +5 1010.8 1010.4
22 16.06 С 5
{7}
н/о н/о +8.6 +7.5 93 +5 +5 1010.6 1010.2
23 16.06 СЗ 4
{6}
н/о н/о +8.4 +7.5 94 +5 +5 1010.4 1010.0
00 17.06 З 4
{8}
н/о н/о +8.4 +7.7 95 +5 +5 1010.6 1010.2
01 17.06 З 4
{7}
н/о н/о +8.1 +7.4 95 +5 +5 1010.5 1010.1
02 17.06 З 5
{6}
н/о н/о +7.9 +7.2 95 +4 +4 1010.4 1010.1
03 17.06 ЮЗ 5
{6}
н/о н/о +7.9 +7.2 95 +4 +4 1010.5 1010.2
04 17.06 З 5
{7}
н/о н/о +7.9 +7.0 94 +4 +4 1010.4 1010.0
05 17.06 ЮЗ 5
{8}
н/о н/о +8.1 +6.9 92 +4 +4 1010.5 1010.1
06 17.06 ЮЗ 5
{8}
н/о н/о +8.3 +6.3 87 +5 +5 1010.5 1010.2 +7.7 +9.5
07 17.06 ЮЗ 6
{8}
н/о н/о +8.5 +6.1 85 +5 +5 1010.7 1010.3
08 17.06 ЮЗ 6
{9}
н/о н/о +8.6 +5.7 82 +5 +5 1011.1 1010.7
09 17.06 ЮЗ 7
{8}
н/о н/о +8.8 +5.4 79 +5 +5 1011.2 1010.8
10 17.06 ЮЗ 7
{9}
н/о н/о +9.0 +5.8 80 +5 +5 1011.2 1010.9
11 17.06 ЮЗ 6
{8}
н/о н/о +9.3 +5.9 79 +6 +6 1011.5 1011.1
12 17.06 ЮЗ 6
{9}
н/о н/о +9.1 +5.8 80 +5 +5 1011.6 1011.2
13 17.06 ЮЗ 6
{8}
н/о н/о +9.2 +5.9 80 +6 +6 1011.6 1011.3
14 17.06 ЮЗ 6
{7}
н/о н/о +9.1 +6.0 81 +5 +5 1011.7 1011.4
15 17.06 ЮЗ 5
{7}
н/о н/о +8.8 +5.9 82 +5 +5 1011.6 1011.3
16 17.06 ЮЗ 4
{6}
н/о н/о +9.1 +6.4 83 +6 +6 1011.6 1011.2
17 17.06 ЮЗ 4
{6}
н/о н/о +9.0 +6.6 85 +6 +6 1011.4 1011.1
18 17.06 ЮЗ 4
{8}
н/о н/о +9.0 +6.6 85 +6 +6 1011.2 1010.8 +8.2 +9.7
19 17.06 З 4
{6}
н/о н/о +9.2 +6.8 85 +6 +6 1011.2 1010.8
20 17.06 З 2
{4}
н/о н/о +8.9 +7.4 90 +7 +7 1011.0 1010.6
21 17.06 штиль 0
{3}
н/о н/о +8.8 +7.7 93 +8 +8 1010.9 1010.5
22 17.06 В 3
{3}
н/о н/о +8.3 +7.6 95 +5 +5 1010.7 1010.3
23 17.06 В 3
{4}
н/о н/о +8.3 +7.7 96 +5 +5 1010.4 1010.1
00 18.06 В 3
{6}
н/о н/о +8.5 +8.1 97 +6 +6 1010.2 1009.8
01 18.06 В 3
{4}
н/о н/о +8.9 +8.6 98 +6 +6 1009.8 1009.5
02 18.06 В 3
{4}
н/о н/о +9.1 +8.7 97 +6 +6 1009.4 1009.1
03 18.06 В 2
{4}
н/о н/о +9.1 +8.7 97 +7 +7 1009.3 1008.9
04 18.06 В 2
{3}
н/о н/о +9.4 +9.0 97 +8 +8 1008.9 1008.5
05 18.06 ЮВ 2
{2}
н/о н/о +9.8 +9.4 97 +8 +8 1008.9 1008.5
06 18.06 Ю 2
{4}
н/о н/о +10.4 +9.5 94 +9 +9 1008.7 1008.3 +8.3 +10.5 0.3
07 18.06 Ю 3
{3}
н/о н/о +10.7 +9.0 89 +9 +9 1008.8 1008.5
08 18.06 Ю 3
{4}
н/о н/о +10.8 +8.7 87 +9 +9 1008.8 1008.4
09 18.06 ЮВ 3
{4}
н/о н/о +10.3 +9.4 94 +8 +8 1008.7 1008.3
10 18.06 ЮВ 3
{5}
н/о н/о +10.0 +9.2 95 +8 +8 1008.5 1008.1
11 18.06 Ю 5
{6}
н/о н/о +10.3 +9.5 95 +7 +7 1009.0 1008.6
12 18.06 Ю 4
{6}
н/о н/о +10.6 +9.8 95 +8 +8 1008.9 1008.5 2
13 18.06 Ю 5
{6}
н/о н/о +11.3 +10.2 93 +8 +8 1008.7 1008.4
14 18.06 Ю 4
{6}
н/о н/о +11.1 +9.7 91 +9 +9 1008.8 1008.4
15 18.06 Ю 5
{6}
н/о н/о +11.2 +9.5 89 +8 +8 1008.8 1008.4
16 18.06 Ю 3
{5}
н/о н/о +10.9 +9.2 89 +9 +9 1008.5 1008.2
17 18.06 ЮВ 3
{4}
н/о н/о +10.6 +9.4 92 +8 +8 1008.0 1007.7
18 18.06 ЮВ 5
{6}
н/о н/о +10.9 +9.2 89 +8 +8 1007.5 1007.2 +10.0 +11.5 2
19 18.06 ЮВ 5
{7}
н/о н/о +10.5 +9.3 92 +7 +7 1007.5 1007.1
20 18.06 ЮВ 4
{7}
н/о н/о +10.4 +8.8 90 +8 +8 1007.4 1007.1
21 18.06 ЮВ 4
{6}
н/о н/о +10.6 +9.0 90 +8 +8 1007.4 1007.0
22 18.06 Ю 3
{6}
н/о н/о +10.2 +9.0 92 +8 +8 1007.2 1006.9
23 18.06 ЮЗ 3
{4}
н/о н/о +10.5 +9.4 93 +8 +8 1007.4 1007.0
00 19.06 ЮЗ 2
{7}
н/о н/о +10.2 +9.4 95 +9 +9 1007.4 1007.0
01 19.06 ЮЗ 2
{3}
н/о н/о +10.1 +9.3 95 +8 +8 1007.5 1007.2
02 19.06 З 2
{4}
н/о н/о +9.7 +8.9 95 +8 +8 1007.7 1007.4
03 19.06 СЗ 2
{3}
н/о н/о +9.5 +8.6 94 +8 +8 1008.0 1007.6
04 19.06 СЗ 2
{3}
н/о н/о +9.4 +8.5 94 +8 +8 1008.1 1007.8
05 19.06 С 3
{3}
н/о н/о +9.9 +8.5 91 +8 +8 1008.2 1007.8
06 19.06 С 2
{4}
н/о н/о +10.4 +8.5 88 +9 +9 1008.5 1008.1 +9.3 +11.0 0.2
07 19.06 СВ 2
{3}
н/о н/о +10.0 +8.3 89 +8 +8 1008.8 1008.4
08 19.06 ЮВ 2
{3}
н/о н/о +10.5 +7.6 82 +9 +9 1009.3 1009.0
09 19.06 Ю 2
{3}
н/о н/о +11.3 +7.4 77 +10 +10 1009.8 1009.4
10 19.06 Ю 3
{4}
н/о н/о +11.1 +6.9 75 +9 +9 1010.1 1009.8
11 19.06 Ю 3
{5}
н/о н/о +12.2 +8.1 76 +11 +11 1010.5 1010.1
12 19.06 ЮВ 3
{5}
н/о н/о +12.2 +8.9 80 +11 +11 1010.7 1010.3
13 19.06 ЮВ 3
{5}
н/о н/о +12.3 +9.7 84 +11 +11 1011.0 1010.6
14 19.06 Ю 4
{6}
н/о н/о +13.1 +10.5 84 +11 +11 1011.1 1010.7
15 19.06 Ю 5
{7}
н/о н/о +12.6 +9.8 83 +10 +10 1011.1 1010.7

 

Местоположение метеостанции Рост аэропорт (Норвегия): широта 67.52 долгота 12.10 высота над уровнем моря 4 м.

В архиве по умолчанию представлена погода в Рост аэропорту за последнюю неделю. Архивные данные за месяц целиком и за предыдущие месяцы, начиная с января 2011 года, Вы можете получить, выбрав интересующий диапазон дат из раскрывающегося списка и нажав кнопку "Ввод!".


*Определитесь, кто Вы:
робот инопланетянин человек

Внимание! Время в таблицах - всемирное. Для получения местного времени необходимо прибавить поправку, которая равна 1 ч.

Смотрите также архив погоды в соседних городах и на ближайших метеорологических станциях:

Погода в Аэропорту Vaeroy Heliport (Норвегия) (30 км)
Погода в Хеллигвере (Норвегия) (78 км)
Погода на Мыкене (Норвегия) (85 км)
Погода в Лекнесе (Норвегия) (96 км)
Погода в Рейпе (Норвегия) (96 км)
Погода в Бодо (Норвегия) (101 км)
Погода на Маяке Skrova (Норвегия) (128 км)
Погода в Солвер III (Норвегия) (130 км)
Погода в Сволваер аэропорту (Норвегия) (135 км)
Погода в Сетсе (Норвегия) (150 км)

Пояснения к столбцам:

Ветер - указаны скорость ветра в м/с - средняя за 10 мин, порывы в срок и между сроками (в фигурных скобках) и направление, откуда дует ветер: С - северный, СВ - северо-восточный, В - восточный, ЮВ - юго-восточный, Ю - южный, ЮЗ - юго-западный, З - западный, СЗ - северо-западный.
Видимость - горизонтальная дальность видимости в метрах или километрах. При видимости от 1 до 10 км при отсутствии осадков обычно наблюдается дымка, при ухудшении видимости до 1 км и менее - туман. В сухую погоду видимость может ухудшаться дымом, пылью или мглою.
Явления - указаны атмосферные явления, наблюдавшиеся в срок или в последний час перед сроком; фигурными скобками обозначены явления, наблюдавшиеся между сроками (за 1-3 часа до срока); квадратными скобками обозначены град или гололедные отложения с указанием их диаметра в мм.
Облачность - указаны через наклонную черту общая и нижняя облачность в баллах и высота нижней границы облаков в метрах; квадратными скобками обозначены формы облаков: Ci - перистые, Cs - перисто-слоистые, Cc - перисто-кучевые, Ac - высококучевые, As - высокослоистые, Sc - слоисто-кучевые, Ns - слоисто-дождевые, Cu - кучевые, Cb - кучево-дождевые. Подробнее классификацию облаков см. в Атласе облаков (PDF).
T - Температура воздуха - температура, измеренная на высоте 2 м над землей.
Td - Температура точки росы - температура, при понижении до которой содержащийся в воздухе водяной пар достигнет насыщения.
f - Относительная влажность воздуха - влажноcть воздуха, измеренная на высоте 2 м над землей.
Te - Эффективная температура - температура, которую ощущает одетый по сезону человек в тени. Характеристика душности погоды. При расчете учитывается влияние влажности воздуха и скорости ветра на теплоощущения человека.
Tes - Эффективная температура на солнце - температура, которую ощущает человек, с поправкой на солнечный нагрев. Характеристика знойности погоды. Зависит от высоты солнца над горизонтом, облачности и скорости ветра. Ночью, в пасмурную погоду, а также при ветре 12 м/с и более поправка равна нулю.
P - Атмосферное давление - приведенное к уровню моря атмосферное давление.
Po - Атмосферное давление - измеренное на уровне метеостанции атмосферное давление.
Tmin - Минимальная температура - минимум температуры воздуха на высоте 2 м над землей.
Tmax - Максимальная температура - максимум температуры воздуха на высоте 2 м над землей.
R - Количество осадков - Количество выпавших осадков за период времени, мм. При наведении курсора мыши на число - период времени, за который выпало указанное количество осадков.
R24 - Количество осадков - Количество выпавших осадков за 24 часа, мм.
S - Снежный покров - Высота снежного покрова, см. При наведении курсора мыши на число - состояние снежного покрова и степень покрытия местности в баллах.